User: anonymous   Login
Location: Turtle Rock Observatory
(36.6913°N, 81.9708°W)
Time: 08:42:01
(UTC-04:00)
Language:

Cosmos 1125 Rocket - Orbit

View from above orbital plane
View from above orbital plane
View from above satellite
View from above satellite

Ground track
Ground track

The orbit data is extracted from the following two-line orbital elements,

1 11511U 79078B   14303.38668729  .00000502  00000-0  17999-3 0  9322
2 11511 074.0366 280.9701 0015083 034.9030 076.0508 14.36480129840657
Epoch (UTC): 30 October 2014 09:16:49
Eccentricity: 0.0015083
inclination: 74.0366°
perigee height: 759 km
apogee height: 781 km
right ascension of ascending node: 280.9701°
argument of perigee: 34.9030°
revolutions per day: 14.36480129
mean anomaly at epoch: 76.0508°
orbit number at epoch: 84065

The dashed part of the orbit path shows where the satellite is in the earth's shadow,  

DLR